Regional Weather Roundup
Issued by NWS

Home | Current Version | Previous Version | Graphics & Text | Print | Product List | Glossary On
Versions: 1 2 3 4 5 6 7 8 9 10 11 12 13 14 15 16 17 18 19 20 21 22 23 24 25 26 27 28 29 30 31 32 33 34 35 36 37 38 39 40 41 42 43 44 45 46 47 48 49 50
059
ASUS44 KLIX 201101
RWRLA
LOUISIANA WEATHER ROUNDUP
NATIONAL WEATHER SERVICE NEW ORLEANS LA
600 AM CDT SUN APR 20 2014

NOTE: "FAIR" INDICATES FEW OR NO CLOUDS BELOW 12,000 FEET WITH NO
      SIGNIFICANT WEATHER AND/OR OBSTRUCTIONS TO VISIBILITY.
      SKY/WX - SKY CONDITION AND SIGNIFICANT WEATHER.
      TMP - AIR TEMPERATURE.    DP   - DEWPOINT TEMPERATURE.
      RH  - RELATIVE HUMIDITY.  PRES - PRESSURE.
      HX  - HEAT INDEX.         WCI  - WIND CHILL INDEX.

*  THESE STATIONS ARE NOT NWS OR FAA STATIONS AND ARE NOT UNDER
   NWS QUALITY CONTROL.

LAZ040-048-061>063-065-066-069-201200-
SOUTHEAST LOUISIANA

CITY           SKY/WX    TMP DP  RH WIND       PRES   REMARKS
N.O. AUDUBON   NOT AVBL
N.O. INTL ARPT PTCLDY    60  57  89 CALM      30.13R
N.O. LAKEFRONT CLEAR     64  56  75 NE10      30.14R
N.O. DOWNTOWN* FAIR      64  54  68 CALM      30.14R
SLIDELL        CLEAR     51  49  92 CALM      30.14R
BATON ROUGE    CLEAR     55  51  86 CALM      30.14R
BOOTHVILLE     CLEAR     62  59  90 E3        30.14R
BELLE CHASSE   CLEAR     53  50  89 CALM      30.13R FOG
BOGALUSA*        N/A     50  47  90 CALM      30.16S
GALLIANO*      NOT AVBL
NEW ROADS*     NOT AVBL
GONZALES*      FAIR      55  55  99 CALM      30.13S
HAMMOND*       NOT AVBL
HOUMA*           N/A     55  53  94 CALM      30.13S FOG
PORT FOURCHON* SUNNY     64  63  94 NW6       30.14S

$$

LAZ041-044-053-054-201200-
SOUTHWEST LOUISIANA

CITY           SKY/WX    TMP DP  RH WIND       PRES   REMARKS
LAKE CHARLES   CLEAR     57  55  93 CALM      30.14S FOG
LAFAYETTE      CLEAR     57  53  86 CALM      30.14S
PATTERSON      CLEAR     55  55 100 CALM      30.16S
SALT POINT       N/A     65  62  90 CALM      30.13R
NEW IBERIA     CLEAR     58  54  86 CALM      30.14S
CHENAULT AIRPK NOT AVBL

$$

LAZ027-028-201200-
CENTRAL LOUISIANA

CITY           SKY/WX    TMP DP  RH WIND       PRES   REMARKS
FORT POLK      CLEAR     54  52  93 CALM      30.15S
ALEXANDRIA INT CLEAR     53  53 100 CALM      30.13S FOG
ALEXANDRIA     PTCLDY    51  49  92 CALM      30.15R FOG

$$

LAZ001-002-201200-
NORTHWEST LOUISIANA

CITY           SKY/WX    TMP DP  RH WIND       PRES   REMARKS
SHREVEPORT     MOCLDY    56  53  90 CALM      30.15R
BARKSDALE AFB  NOT AVBL
DTN SHREVEPORT MOCLDY    57  53  86 CALM      30.15R

$$

LAZ014-016-201200-
NORTHEAST LOUISIANA

CITY           SKY/WX    TMP DP  RH WIND       PRES   REMARKS
MONROE         FOG       53  52  96 CALM      30.17R VSB 1/4
TALLULAH       CLEAR     57  55  93 CALM      30.16R

$$




USA.gov is the U.S. government's official web portal to all federal, state and local government web resources and services.